• In Moldova, Republic
  • List of Countries
  • For 7 days
  • Water Temperature
  • Satellite Maps
  • Weather Map
  • Weather Widgets
  • user-avatar
    Login

    Hourly Weather Ostrov

    Today, 23 October, Tuesday

    Time Temperature Precipitation Wind Pressure Humidity
    00:00 +4°C° 0 mm 3 mps 751 mmHg 90%
    01:00 +3°C° 0 mm 3 mps 751 mmHg 91%
    02:00 +4°C° 0 mm 2 mps 750 mmHg 93%
    03:00 +3°C° 0 mm 3 mps 750 mmHg 94%
    04:00 +2°C° 0 mm 3 mps 749 mmHg 94%
    05:00 +2°C° 0 mm 3 mps 749 mmHg 94%
    06:00 +2°C° 0 mm 3 mps 748 mmHg 93%
    07:00 +2°C° 0 mm 3 mps 747 mmHg 92%
    08:00 +1°C° 0 mm 4 mps 746 mmHg 91%
    09:00 +3°C° 0 mm 4 mps 745 mmHg 87%
    10:00 +3°C° 0 mm 5 mps 744 mmHg 83%
    11:00 +5°C° 0 mm 5 mps 743 mmHg 78%
    12:00 +5°C° 0.1 mm 5 mps 742 mmHg 77%
    13:00 +5°C° 0.1 mm 6 mps 741 mmHg 76%
    14:00 +5°C° 0.1 mm 6 mps 740 mmHg 74%
    15:00 +5°C° 0.2 mm 6 mps 738 mmHg 76%
    16:00 +4°C° 0.2 mm 6 mps 737 mmHg 77%
    17:00 +4°C° 0.2 mm 6 mps 736 mmHg 78%
    18:00 +4°C° 0.3 mm 6 mps 735 mmHg 79%
    19:00 +3°C° 0.3 mm 6 mps 733 mmHg 80%
    20:00 +3°C° 0.3 mm 6 mps 732 mmHg 82%
    21:00 +3°C° 0.7 mm 5 mps 732 mmHg 83%
    22:00 +3°C° 0.7 mm 5 mps 731 mmHg 85%
    23:00 +3°C° 0.7 mm 5 mps 730 mmHg 86%

    Tomorrow, 24 October, Wednesday

    Time Temperature Precipitation Wind Pressure Humidity
    00:00 +4°C° 0.6 mm 4 mps 729 mmHg 88%
    01:00 +4°C° 0.6 mm 4 mps 729 mmHg 89%
    02:00 +4°C° 0.6 mm 4 mps 728 mmHg 90%
    03:00 +4°C° 0.6 mm 3 mps 728 mmHg 91%
    04:00 +4°C° 0.6 mm 3 mps 728 mmHg 92%
    05:00 +5°C° 0.6 mm 2 mps 727 mmHg 93%
    06:00 +5°C° 0.4 mm 2 mps 728 mmHg 93%
    07:00 +5°C° 0.4 mm 2 mps 728 mmHg 94%
    08:00 +5°C° 0.4 mm 2 mps 728 mmHg 94%
    09:00 +5°C° 0.3 mm 2 mps 729 mmHg 92%
    10:00 +6°C° 0.3 mm 2 mps 730 mmHg 90%
    11:00 +5°C° 0.3 mm 3 mps 730 mmHg 88%
    12:00 +5°C° 0.5 mm 3 mps 731 mmHg 87%
    13:00 +5°C° 0.5 mm 4 mps 732 mmHg 87%
    14:00 +5°C° 0.5 mm 4 mps 732 mmHg 86%
    15:00 +5°C° 0.4 mm 4 mps 733 mmHg 86%
    16:00 +3°C° 0.4 mm 5 mps 734 mmHg 86%
    17:00 +3°C° 0.4 mm 5 mps 735 mmHg 86%
    18:00 +3°C° 0.3 mm 5 mps 735 mmHg 85%
    19:00 +3°C° 0.3 mm 5 mps 736 mmHg 85%
    20:00 +3°C° 0.3 mm 5 mps 737 mmHg 84%
    21:00 +2°C° 0.1 mm 5 mps 737 mmHg 84%
    22:00 +2°C° 0.1 mm 5 mps 738 mmHg 85%
    23:00 +3°C° 0.1 mm 4 mps 738 mmHg 85%

    Day after tomorrow, 25 October, Thursday

    Time Temperature Precipitation Wind Pressure Humidity
    00:00 +1°C° 0 mm 4 mps 739 mmHg 87%
    01:00 +1°C° 0 mm 4 mps 739 mmHg 89%
    02:00 +1°C° 0 mm 4 mps 739 mmHg 91%
    03:00 +2°C° 0 mm 3 mps 739 mmHg 91%
    04:00 +1°C° 0 mm 3 mps 739 mmHg 92%
    05:00 +1°C° 0 mm 3 mps 739 mmHg 93%
    06:00 +2°C° 0 mm 3 mps 739 mmHg 93%
    07:00 +2°C° 0 mm 3 mps 739 mmHg 92%
    08:00 +2°C° 0 mm 3 mps 739 mmHg 91%
    09:00 +2°C° 0 mm 3 mps 739 mmHg 86%
    10:00 +3°C° 0 mm 3 mps 739 mmHg 81%
    11:00 +4°C° 0 mm 4 mps 738 mmHg 75%
    12:00 +4°C° 0 mm 3 mps 738 mmHg 73%
    13:00 +4°C° 0 mm 3 mps 738 mmHg 70%
    14:00 +5°C° 0 mm 3 mps 738 mmHg 67%
    15:00 +4°C° 0 mm 3 mps 738 mmHg 73%
    16:00 +4°C° 0 mm 2 mps 738 mmHg 79%
    17:00 +3°C° 0 mm 2 mps 738 mmHg 85%
    18:00 +2°C° 0 mm 2 mps 738 mmHg 87%
    19:00 +2°C° 0 mm 2 mps 738 mmHg 89%
    20:00 +2°C° 0 mm 2 mps 738 mmHg 91%
    21:00 +2°C° 0 mm 2 mps 738 mmHg 91%
    22:00 +2°C° 0 mm 2 mps 738 mmHg 91%
    23:00 +2°C° 0 mm 2 mps 738 mmHg 91%

    26 October, Friday

    Time Temperature Precipitation Wind Pressure Humidity
    00:00 +2°C° 0 mm 2 mps 738 mmHg 92%
    01:00 0°C° 0 mm 3 mps 738 mmHg 93%
    02:00 0°C° 0 mm 3 mps 739 mmHg 94%
    03:00 0°C° 0 mm 3 mps 739 mmHg 94%
    04:00 0°C° 0 mm 3 mps 739 mmHg 94%
    05:00 0°C° 0 mm 3 mps 739 mmHg 94%
    06:00 0°C° 0 mm 3 mps 739 mmHg 94%
    07:00 0°C° 0 mm 3 mps 739 mmHg 93%
    08:00 0°C° 0 mm 3 mps 740 mmHg 93%
    09:00 +1°C° 0 mm 3 mps 740 mmHg 88%
    10:00 +1°C° 0 mm 4 mps 740 mmHg 83%
    11:00 +4°C° 0 mm 4 mps 740 mmHg 77%
    12:00 +4°C° 0 mm 4 mps 741 mmHg 74%
    13:00 +5°C° 0 mm 4 mps 741 mmHg 71%
    14:00 +5°C° 0 mm 4 mps 741 mmHg 68%
    15:00 +4°C° 0.1 mm 4 mps 741 mmHg 74%
    16:00 +3°C° 0.1 mm 3 mps 741 mmHg 79%
    17:00 +2°C° 0.1 mm 3 mps 742 mmHg 85%
    18:00 +2°C° 0 mm 3 mps 742 mmHg 88%
    19:00 +2°C° 0 mm 2 mps 742 mmHg 90%
    20:00 +2°C° 0 mm 2 mps 742 mmHg 92%
    21:00 +2°C° 0 mm 2 mps 742 mmHg 92%
    22:00 +2°C° 0 mm 2 mps 742 mmHg 92%
    23:00 +1°C° 0 mm 2 mps 741 mmHg 92%

    27 October, Saturday

    Time Temperature Precipitation Wind Pressure Humidity
    00:00 +2°C° 0.1 mm 2 mps 741 mmHg 91%
    01:00 +1°C° 0.1 mm 3 mps 740 mmHg 89%
    02:00 +2°C° 0.1 mm 3 mps 739 mmHg 87%
    03:00 +1°C° 1.3 mm 4 mps 738 mmHg 88%
    04:00 +1°C° 1.3 mm 4 mps 737 mmHg 89%
    05:00 +2°C° 1.3 mm 5 mps 736 mmHg 89%
    06:00 +3°C° 1.1 mm 4 mps 735 mmHg 91%
    07:00 +3°C° 1.1 mm 4 mps 734 mmHg 92%
    08:00 +4°C° 1.1 mm 4 mps 733 mmHg 93%
    09:00 +4°C° 0.9 mm 4 mps 733 mmHg 91%
    10:00 +5°C° 0.9 mm 4 mps 733 mmHg 88%
    11:00 +5°C° 0.9 mm 4 mps 733 mmHg 86%
    12:00 +6°C° 0.2 mm 4 mps 733 mmHg 83%
    13:00 +6°C° 0.2 mm 4 mps 734 mmHg 80%
    14:00 +6°C° 0.2 mm 4 mps 734 mmHg 76%
    15:00 +5°C° 0.1 mm 4 mps 734 mmHg 80%
    16:00 +4°C° 0.1 mm 3 mps 735 mmHg 83%
    17:00 +5°C° 0.1 mm 2 mps 736 mmHg 87%
    18:00 +3°C° 0.1 mm 3 mps 737 mmHg 88%
    19:00 +3°C° 0.1 mm 4 mps 738 mmHg 89%
    20:00 +1°C° 0.1 mm 4 mps 739 mmHg 90%
    21:00 +1°C° 0.1 mm 4 mps 740 mmHg 89%
    22:00 +1°C° 0.1 mm 4 mps 742 mmHg 87%
    23:00 +1°C° 0.1 mm 4 mps 743 mmHg 86%

    28 October, Sunday

    Time Temperature Precipitation Wind Pressure Humidity
    00:00 +1°C° 0.1 mm 4 mps 744 mmHg 87%
    01:00 +1°C° 0.1 mm 4 mps 745 mmHg 88%
    02:00 +2°C° 0.1 mm 3 mps 747 mmHg 89%
    03:00 +1°C° 0.2 mm 3 mps 747 mmHg 90%
    04:00 +1°C° 0.2 mm 3 mps 748 mmHg 91%
    05:00 +1°C° 0.2 mm 3 mps 749 mmHg 92%
    06:00 +1°C° 0.1 mm 3 mps 750 mmHg 91%
    07:00 0°C° 0.1 mm 3 mps 751 mmHg 91%
    08:00 0°C° 0.1 mm 3 mps 751 mmHg 90%
    09:00 +1°C° 0 mm 3 mps 752 mmHg 86%
    10:00 +2°C° 0 mm 3 mps 753 mmHg 82%
    11:00 +2°C° 0 mm 3 mps 753 mmHg 78%
    12:00 +3°C° 0.1 mm 3 mps 754 mmHg 76%
    13:00 +3°C° 0.1 mm 3 mps 754 mmHg 74%
    14:00 +3°C° 0.1 mm 3 mps 755 mmHg 73%
    15:00 +2°C° 0.1 mm 3 mps 755 mmHg 77%
    16:00 +2°C° 0.1 mm 2 mps 755 mmHg 82%
    17:00 +1°C° 0.1 mm 2 mps 756 mmHg 87%
    18:00 +2°C° 0 mm 1 mps 756 mmHg 89%
    19:00 +1°C° 0 mm 1 mps 757 mmHg 90%
    20:00 +1°C° 0 mm 1 mps 757 mmHg 92%
    21:00 0°C° 0 mm 1 mps 758 mmHg 92%
    22:00 0°C° 0 mm 1 mps 758 mmHg 92%
    23:00 0°C° 0 mm 1 mps 759 mmHg 92%

    29 October, Monday

    Time Temperature Precipitation Wind Pressure Humidity
    00:00 0°C° 0 mm 1 mps 759 mmHg 92%
    01:00 0°C° 0 mm 1 mps 759 mmHg 92%
    02:00 0°C° 0 mm 1 mps 759 mmHg 92%
    03:00 0°C° 0 mm 1 mps 759 mmHg 92%
    04:00 0°C° 0 mm 1 mps 759 mmHg 92%
    05:00 0°C° 0 mm 1 mps 759 mmHg 92%
    06:00 0°C° 0 mm 1 mps 760 mmHg 91%
    07:00 0°C° 0 mm 1 mps 760 mmHg 91%
    08:00 +1°C° 0 mm 1 mps 760 mmHg 90%
    09:00 -1°C° 0 mm 2 mps 760 mmHg 87%
    10:00 +1°C° 0 mm 2 mps 760 mmHg 84%
    11:00 +1°C° 0 mm 2 mps 760 mmHg 81%
    12:00 +1°C° 0 mm 3 mps 760 mmHg 81%
    13:00 +1°C° 0 mm 3 mps 760 mmHg 81%
    14:00 +1°C° 0 mm 3 mps 760 mmHg 81%
    15:00 +1°C° 0.1 mm 3 mps 760 mmHg 83%
    16:00 0°C° 0.1 mm 3 mps 760 mmHg 85%
    17:00 0°C° 0.1 mm 3 mps 759 mmHg 87%
    18:00 -1°C° 0.3 mm 4 mps 759 mmHg 88%
    19:00 -1°C° 0.3 mm 4 mps 759 mmHg 88%
    20:00 -1°C° 0.3 mm 4 mps 759 mmHg 88%
    21:00 -1°C° 0.5 mm 5 mps 759 mmHg 88%
    22:00 -1°C° 0.5 mm 5 mps 758 mmHg 89%
    23:00 -1°C° 0.5 mm 5 mps 758 mmHg 89%
    Show more